This is the latest recevied weather packets stored in our database for station/object JA0ZJX-13. If no packets are shown the sender has not sent any weather packets the latest 10 day(s).
| Time | Temp. | Humidity | Pressure | Rain* | Wind** | Luminosity | Snow |
|---|---|---|---|---|---|---|---|
| 1777423422 | 15° C | 67% | 1012.7 hPa | 0 mm | - | 239 W/m² | - |
| 1777422814 | 15° C | 68% | 1012.9 hPa | 0 mm | - | 269 W/m² | - |
| 1777422224 | 15° C | 70% | 1012.8 hPa | 0 mm | - | 434 W/m² | - |
| 1777421613 | 15° C | 70% | 1012.6 hPa | 0 mm | - | 373 W/m² | - |
| 1777421023 | 14.44° C | 71% | 1012.5 hPa | 0 mm | - | 253 W/m² | - |
| 1777420415 | 14.44° C | 71% | 1012.6 hPa | 0 mm | - | 306 W/m² | - |
| 1777419805 | 13.89° C | 72% | 1012.6 hPa | 0 mm | - | 225 W/m² | - |
| 1777419214 | 13.89° C | 73% | 1012.7 hPa | 0 mm | - | 167 W/m² | - |
| 1777418609 | 13.33° C | 73% | 1012.7 hPa | 0 mm | - | 172 W/m² | - |
| 1777418018 | 13.33° C | 75% | 1012.7 hPa | 0 mm | - | 120 W/m² | - |
| 1777417409 | 13.33° C | 76% | 1012.6 hPa | 0 mm | - | 125 W/m² | - |
| 1777416819 | 13.33° C | 77% | 1012.5 hPa | 0 mm | - | 121 W/m² | - |
| 1777416213 | 13.33° C | 77% | 1012.2 hPa | 0 mm | - | 109 W/m² | - |
| 1777415623 | 13.33° C | 77% | 1012.2 hPa | 0 mm | - | 97 W/m² | - |
| 1777415012 | 13.33° C | 78% | 1012.3 hPa | 0 mm | - | 104 W/m² | - |
| 1777414422 | 13.33° C | 78% | 1012.3 hPa | 0 mm | - | 60 W/m² | - |
| 1777413815 | 13.33° C | 79% | 1012.2 hPa | 0 mm | - | 86 W/m² | - |
| 1777413206 | 13.33° C | 79% | 1012 hPa | 0 mm | - | 90 W/m² | - |
| 1777412615 | 13.33° C | 79% | 1011.8 hPa | 0 mm | - | 51 W/m² | - |
| 1777412009 | 13.33° C | 80% | 1011.7 hPa | 0 mm | - | 54 W/m² | - |
| 1777411418 | 13.33° C | 80% | 1011.6 hPa | 0 mm | - | 95 W/m² | - |
| 1777410807 | 13.33° C | 81% | 1011.8 hPa | 0 mm | - | 77 W/m² | - |
| 1777410216 | 13.33° C | 81% | 1011.8 hPa | 0 mm | - | 72 W/m² | - |
| 1777409608 | 13.33° C | 81% | 1011.8 hPa | 0 mm | - | 54 W/m² | - |
| 1777409018 | 13.33° C | 81% | 1011.4 hPa | 0 mm | - | 40 W/m² | - |
* Rain latest hour (hover to see other rain measurements)
** Current wind speed in m/s (hover to see current wind gust speed)